Weather History for Crockett, TX

Change the Weather History Date:

Thursday, August 29, 2013

  Actual Average (KLFK) Record (KLFK)
Temperature  
Mean Temperature 88 °F 82 °F  
Max Temperature 100 °F 93 °F 102 °F (2000)
Min Temperature 75 °F 71 °F 55 °F (1952)
Degree Days  
Heating Degree Days 0 0  
Month to date heating degree days 0  
Since 1 June heating degree days 0  
Since 1 July heating degree days 0  
Cooling Degree Days 22 17  
Month to date cooling degree days 516  
Year to date cooling degree days 1987  
Since 1 June cooling degree days 1518  
Growing Degree Days 38 (Base 50)    
Moisture  
Dew Point 66 °F    
Average Humidity 54    
Maximum Humidity 83    
Minimum Humidity 27    
Precipitation  
Precipitation 0.00 in 0.12 in 2.25 in (1946)
Month to date precipitation 3.11  
Year to date precipitation 30.36  
Snow  
Snow 0.00 in - - ()
Month to date snowfall  
Since 1 June snowfall  
Since 1 July snowfall  
Snow Depth -    
Sea Level Pressure  
Sea Level Pressure 30.04 in    
Wind  
Wind Speed 4 mph (SE)    
Max Wind Speed 9 mph    
Max Gust Speed -    
Visibility 10 miles    
Events      
T = Trace of Precipitation, MM = Missing Value Source: NWS Daily Summary

Daily Weather History Graph

Daily Weather History Graph

Search for Another Location

Airport:

Trip Planner

Search our weather history database for the weather conditions in past years. The results will help you decide how hot, cold, wet, or windy it might be!

Date:

Astronomy

Aug. 29, 2013 Rise Set
Actual Time 6:55 AM CDT 7:48 PM CDT
Civil Twilight 6:31 AM CDT 8:13 PM CDT
Nautical Twilight 6:01 AM CDT 8:42 PM CDT
Astronomical Twilight 5:31 AM CDT 9:12 PM CDT
Moon 12:59 AM CDT (8/29) 3:06 PM CDT (8/29)
Length of Visible Light 13h 42m
Length of Day
12h 52m
Last Quarter, 38% of the Moon is Illuminated
Aug 29
Last Quarter
Sep 5
New
Sep 12
First Quarter
Sep 19
Full
Sep 26
Last Quarter

Hourly Weather History & Observations

Time (CDT) Temp. Heat Index Dew Point Humidity Pressure Visibility Wind Dir Wind Speed Gust Speed Precip Events Conditions
12:15 AM 77.0 °F - 69.8 °F 78% 30.03 in 10.0 mi Calm Calm - N/A   Clear
12:35 AM 78.8 °F - 69.8 °F 74% 30.03 in 10.0 mi Calm Calm - N/A   Partly Cloudy
12:55 AM 77.0 °F - 69.8 °F 78% 30.04 in 10.0 mi NE 3.5 mph - N/A   Scattered Clouds
1:15 AM 78.8 °F - 69.8 °F 74% 30.04 in 10.0 mi NNE 3.5 mph - N/A   Mostly Cloudy
1:35 AM 78.8 °F - 69.8 °F 74% 30.04 in 10.0 mi Calm Calm - N/A   Partly Cloudy
1:55 AM 77.0 °F - 69.8 °F 78% 30.04 in 10.0 mi Calm Calm - N/A   Scattered Clouds
2:15 AM 77.0 °F - 69.8 °F 78% 30.04 in 10.0 mi SSW 5.8 mph - N/A   Partly Cloudy
2:35 AM 77.0 °F - 69.8 °F 78% 30.05 in 10.0 mi Calm Calm - N/A   Clear
2:55 AM 77.0 °F - 69.8 °F 78% 30.05 in 10.0 mi South 3.5 mph - N/A   Partly Cloudy
3:15 AM 77.0 °F - 69.8 °F 78% 30.05 in 10.0 mi SW 4.6 mph - N/A   Partly Cloudy
3:35 AM 78.8 °F - 69.8 °F 74% 30.05 in 10.0 mi Calm Calm - N/A   Partly Cloudy
3:55 AM 78.8 °F - 69.8 °F 74% 30.05 in 10.0 mi SW 5.8 mph - N/A   Clear
4:15 AM 78.8 °F - 69.8 °F 74% 30.05 in 10.0 mi WSW 5.8 mph - N/A   Partly Cloudy
4:35 AM 80.6 °F 83.9 °F 69.8 °F 70% 30.05 in 10.0 mi WSW 6.9 mph - N/A   Scattered Clouds
4:55 AM 78.8 °F - 69.8 °F 74% 30.06 in 10.0 mi West 5.8 mph - N/A   Partly Cloudy
5:15 AM 78.8 °F - 69.8 °F 74% 30.06 in 10.0 mi WSW 3.5 mph - N/A   Partly Cloudy
5:35 AM 78.8 °F - 69.8 °F 74% 30.07 in 10.0 mi South 4.6 mph - N/A   Partly Cloudy
5:55 AM 78.8 °F - 69.8 °F 74% 30.08 in 10.0 mi SSE 4.6 mph - N/A   Partly Cloudy
6:15 AM 77.0 °F - 69.8 °F 78% 30.09 in 10.0 mi South 3.5 mph - N/A   Scattered Clouds
6:35 AM 75.2 °F - 69.8 °F 83% 30.09 in 10.0 mi SSE 4.6 mph - N/A   Partly Cloudy
6:55 AM 75.2 °F - 69.8 °F 83% 30.09 in 10.0 mi South 4.6 mph - N/A   Partly Cloudy
7:15 AM 75.2 °F - 69.8 °F 83% 30.09 in 10.0 mi SSW 3.5 mph - N/A   Partly Cloudy
7:35 AM 75.2 °F - 69.8 °F 83% 30.10 in 10.0 mi South 4.6 mph - N/A   Partly Cloudy
7:55 AM 78.8 °F - 71.6 °F 78% 30.10 in 10.0 mi South 6.9 mph - N/A   Scattered Clouds
8:15 AM 78.8 °F - 71.6 °F 78% 30.10 in 10.0 mi SSW 5.8 mph - N/A   Partly Cloudy
8:35 AM 80.6 °F 84.6 °F 71.6 °F 74% 30.10 in 10.0 mi SW 5.8 mph - N/A   Clear
8:55 AM 82.4 °F 86.3 °F 69.8 °F 66% 30.11 in 10.0 mi SSW 4.6 mph - N/A   Clear
9:15 AM 82.4 °F 86.3 °F 69.8 °F 66% 30.11 in 10.0 mi WSW 4.6 mph - N/A   Clear
9:35 AM 84.2 °F 88.4 °F 69.8 °F 62% 30.11 in 10.0 mi WSW 3.5 mph - N/A   Clear
9:55 AM 87.8 °F 92.6 °F 69.8 °F 55% 30.11 in 10.0 mi WSW 5.8 mph - N/A   Clear
10:15 AM 87.8 °F 92.6 °F 69.8 °F 55% 30.11 in 10.0 mi NNW 8.1 mph - N/A   Clear
10:35 AM 89.6 °F 94.7 °F 69.8 °F 52% 30.10 in 10.0 mi NW 5.8 mph - N/A   Clear
10:55 AM 89.6 °F 94.7 °F 69.8 °F 52% 30.10 in 10.0 mi WNW 8.1 mph - N/A   Clear
11:15 AM 91.4 °F 95.4 °F 68.0 °F 46% 30.10 in 10.0 mi WNW 6.9 mph - N/A   Clear
11:35 AM 91.4 °F 95.4 °F 68.0 °F 46% 30.09 in 10.0 mi WNW 6.9 mph - N/A   Clear
11:55 AM 93.2 °F 96.2 °F 66.2 °F 41% 30.08 in 10.0 mi NNE 8.1 mph - N/A   Clear
12:15 PM 95.0 °F 98.5 °F 66.2 °F 39% 30.08 in 10.0 mi WSW 4.6 mph - N/A   Clear
12:35 PM 96.8 °F 100.7 °F 66.2 °F 37% 30.07 in 10.0 mi South 6.9 mph - N/A   Clear
12:55 PM 95.0 °F 98.5 °F 66.2 °F 39% 30.06 in 10.0 mi NNE 5.8 mph - N/A   Unknown
1:15 PM 96.8 °F 99.0 °F 64.4 °F 34% 30.05 in 10.0 mi North 5.8 mph - N/A   Unknown
1:35 PM 96.8 °F 98.0 °F 62.6 °F 32% 30.05 in 10.0 mi NE 8.1 mph - N/A   Unknown
1:55 PM 98.6 °F 100.0 °F 62.6 °F 30% 30.04 in 10.0 mi Calm Calm - N/A   Unknown
2:15 PM 98.6 °F 100.0 °F 62.6 °F 30% 30.03 in 10.0 mi NNW 3.5 mph - N/A   Unknown
2:35 PM 100.4 °F 102.4 °F 62.6 °F 29% 30.03 in 10.0 mi SSE 6.9 mph - N/A   Unknown
2:55 PM 98.6 °F 100.0 °F 62.6 °F 30% 30.02 in 10.0 mi East 5.8 mph - N/A   Unknown
3:15 PM 98.6 °F 100.0 °F 62.6 °F 30% 30.01 in 10.0 mi SE 5.8 mph - N/A   Unknown
3:35 PM 98.6 °F 100.0 °F 62.6 °F 30% 30.00 in 10.0 mi North 3.5 mph - N/A   Unknown
3:55 PM 98.6 °F 99.4 °F 60.8 °F 29% 29.99 in 10.0 mi NE 9.2 mph - N/A   Unknown
4:15 PM 98.6 °F 99.4 °F 60.8 °F 29% 29.99 in 10.0 mi Calm Calm - N/A   Unknown
4:35 PM 98.6 °F 100.0 °F 62.6 °F 30% 29.98 in 10.0 mi NE 8.1 mph - N/A   Unknown
4:55 PM 100.4 °F 101.3 °F 60.8 °F 27% 29.97 in 10.0 mi ENE 4.6 mph - N/A   Unknown
5:15 PM 100.4 °F 101.3 °F 60.8 °F 27% 29.97 in 10.0 mi NNE 3.5 mph - N/A   Unknown
5:35 PM 100.4 °F 101.3 °F 60.8 °F 27% 29.97 in 10.0 mi NE 5.8 mph - N/A   Unknown
5:55 PM 98.6 °F 99.4 °F 60.8 °F 29% 29.97 in 10.0 mi NE 6.9 mph - N/A   Unknown
6:15 PM 96.8 °F 97.1 °F 60.8 °F 30% 29.97 in 10.0 mi NE 5.8 mph - N/A   Unknown
6:35 PM 98.6 °F 99.4 °F 60.8 °F 29% 29.97 in 10.0 mi ENE 3.5 mph - N/A   Unknown
6:55 PM 98.6 °F 99.4 °F 60.8 °F 29% 29.97 in 10.0 mi NE 5.8 mph - N/A   Unknown
7:15 PM 96.8 °F 97.1 °F 60.8 °F 30% 29.97 in 10.0 mi Calm Calm - N/A   Unknown
7:35 PM 93.2 °F 94.1 °F 62.6 °F 36% 29.97 in 10.0 mi Calm Calm - N/A   Unknown
7:55 PM 89.6 °F 90.1 °F 62.6 °F 40% 29.98 in 10.0 mi Calm Calm - N/A   Unknown
8:15 PM 87.8 °F 89.4 °F 64.4 °F 46% 29.98 in 10.0 mi Calm Calm - N/A   Unknown
8:35 PM 84.2 °F 85.6 °F 64.4 °F 51% 29.99 in 10.0 mi Calm Calm - N/A   Clear
8:55 PM 84.2 °F 85.6 °F 64.4 °F 51% 29.99 in 10.0 mi NE 3.5 mph - N/A   Clear
9:15 PM 82.4 °F 83.9 °F 64.4 °F 54% 29.99 in 10.0 mi ENE 3.5 mph - N/A   Clear
9:35 PM 86.0 °F 86.6 °F 62.6 °F 45% 30.00 in 10.0 mi East 4.6 mph - N/A   Clear
9:55 PM 87.8 °F 88.5 °F 62.6 °F 43% 30.00 in 10.0 mi East 5.8 mph - N/A   Clear
10:15 PM 87.8 °F 88.5 °F 62.6 °F 43% 30.01 in 10.0 mi East 4.6 mph - N/A   Clear
10:35 PM 87.8 °F 88.5 °F 62.6 °F 43% 30.01 in 10.0 mi SE 3.5 mph - N/A   Clear
10:55 PM 86.0 °F 86.6 °F 62.6 °F 45% 30.01 in 10.0 mi ESE 3.5 mph - N/A   Clear
11:15 PM 86.0 °F 86.6 °F 62.6 °F 45% 30.02 in 10.0 mi ESE 4.6 mph - N/A   Clear
11:35 PM 84.2 °F 85.6 °F 64.4 °F 51% 30.02 in 10.0 mi ESE 4.6 mph - N/A   Clear
11:55 PM 84.2 °F 86.6 °F 66.2 °F 55% 30.02 in 10.0 mi SE 5.8 mph - N/A   Clear